IK5NLA Vaiano IT current weather conditions

sailwx.info

Wind from 242 at 2 knots

Air temperature 18.9° C
Dewpoint 15.0° C

Last reported at 2015-Jul-28 19:51 UTC.
Time now 2015-Jul-28 21:51 UTC

Location: N 43°58' E 011°06'.
View on Google Maps.

See reports from other nearby stations

  
Tides and Currents Weather Stations Pressure Air Temp Water Temp Dewpoint Dewpoint Depression Visibility Wind Speed Wind Dir Waves Ship Positions
date/time (UTC)wind fromknots sea level pressurealtimeterstation pressurevisibilityair tempwater tempwave heightnotes
2015-Jul-28 19:51 242 2 18.9
2015-Jul-28 19:21 201 4 20.0
2015-Jul-28 18:56 218 6 20.6
2015-Jul-28 18:36 252 5 21.1
2015-Jul-28 18:21 217 8 21.7
2015-Jul-28 18:01 200 9 22.2
2015-Jul-28 17:01 240 10 23.3
2015-Jul-28 16:31 235 13 23.9
2015-Jul-28 16:11 217 11 24.4
2015-Jul-28 15:01 215 14 25.0
2015-Jul-28 13:46 248 13 25.0
2015-Jul-28 13:31 243 12 25.0
2015-Jul-28 12:11 199 13 24.4
2015-Jul-28 12:01 200 10 25.0
2015-Jul-28 11:46 219 11 25.0
2015-Jul-28 11:31 218 10 25.0
2015-Jul-28 11:11 273 10 24.4
2015-Jul-28 10:51 222 10 24.4
2015-Jul-28 10:41 184 9 24.4
2015-Jul-28 10:21 190 13 23.9
2015-Jul-28 09:56 200 9 23.9
2015-Jul-28 09:06 189 11 23.3
2015-Jul-28 08:51 229 9 22.8
2015-Jul-28 08:41 215 9 23.3
2015-Jul-28 07:11 176 10 20.6
2015-Jul-28 06:41 176 7 20.0
2015-Jul-28 05:46 188 5 18.9
2015-Jul-28 05:36 216 6 18.9
2015-Jul-28 05:21 217 6 18.3
2015-Jul-28 05:11 231 4 18.3
2015-Jul-28 04:41 159 2 18.3
2015-Jul-28 04:31 188 3 18.3
2015-Jul-28 04:11 343 2 17.8
2015-Jul-28 04:00 111 2 17.8
2015-Jul-28 02:25 137 2 18.3
2015-Jul-28 01:28 129 3 19.4
2015-Jul-28 00:51 278 6 19.4
2015-Jul-28 00:31 009 6 19.4
2015-Jul-27 23:11 229 4 18.9
2015-Jul-27 22:41 194 6 19.4
2015-Jul-27 22:01 238 6 19.4
2015-Jul-27 21:11 256 13 20.0
2015-Jul-27 19:41 254 5 20.6
2015-Jul-27 18:51 181 8 21.7
2015-Jul-27 18:11 182 6 22.2
2015-Jul-27 17:51 209 10 22.8
2015-Jul-27 17:31 223 8 22.8
2015-Jul-27 17:11 155 6 23.3
2015-Jul-27 16:46 211 8 23.9
2015-Jul-27 16:16 252 10 23.9
2015-Jul-27 15:01 215 12 24.4
2015-Jul-27 13:56 206 12 25.0
2015-Jul-27 13:31 217 14 24.4
2015-Jul-27 13:11 246 11 25.0
2015-Jul-27 12:51 214 10 25.0
2015-Jul-27 12:41 224 12 25.0
2015-Jul-27 11:31 227 9 24.4
2015-Jul-27 10:51 232 13 24.4
2015-Jul-27 10:41 243 13 24.4
2015-Jul-27 10:01 236 9 23.3
2015-Jul-27 09:41 185 9 23.3
2015-Jul-27 08:56 257 6 22.8
2015-Jul-27 08:36 213 6 22.8
2015-Jul-27 08:21 232 6 22.2
2015-Jul-27 08:06 144 6 21.7
2015-Jul-27 07:51 161 6 20.6
2015-Jul-27 07:41 182 9 20.0
2015-Jul-27 07:21 175 6 19.4
2015-Jul-27 07:01 168 8 18.9
2015-Jul-27 06:36 252 11 18.9
2015-Jul-27 06:01 232 9 17.8
2015-Jul-27 05:51 194 9 17.8
2015-Jul-27 05:41 192 9 17.8
2015-Jul-27 05:31 200 9 17.8
2015-Jul-27 05:01 135 10 17.8
2015-Jul-27 04:31 173 9 17.8
2015-Jul-26 23:45 186 5 gusting 9 18.9
2015-Jul-26 21:15 203 2 gusting 2 19.4